Starlink 32311

operational
NORAD ID: 62114 Int'l Des: 2024-222 Owner: SPXS Country: US Constellation: starlink
LEOCIRCULAR

Starlink 32311について

説明を読み込み中...

リアルタイム位置

3D地球を読み込み中...

次回通過

高度履歴

Altitude vs Time

uPlot chart will show altitude changes over time

軌道要素

1 62114U 24222A 26036.13704045 .00042495 00000-0 15436-2 0 9992
2 62114 42.9974 305.0494 0002552 248.7624 111.2955 15.27606899 68105
Epoch: Feb 5, 2026 • Age: 6 hours

現在のステータス

高度 483.0 km
速度 7.63 km/s
衛星直下点 12.26°N, 36.73°E
打ち上げ日 Nov 27, 2024
運用期間 1.1 years
タイプ internet

技術仕様

分類 Payload
質量 730.00 kg
乾燥質量 700.00 kg
総質量 730.00 kg
長さ 0.30 m
直径 4.10 m
スパン 29.00 m
形状 Box + pan
製造者 SPXS
バスタイプ Starlink V2M
フェーズステータス In Orbit
所有者/国 SPXS/US

大規模コンステレーション

Loading constellations...